Content
SEND FEEDBACK

Daily
Averages
Monthly
Summary
United States of America

SHUNGNAK, ALASKA


Home > North America > United States > Alaska
Elevation: 14 feet     Latitude: 66 54N     Longitude: 156 52W

WEATHER
 
SELECT A DAY
Number of Records: 410,059;   Date Range: 1/1/95 - 7/6/14
 
SHARE

PRINT THIS DATA

[ ← Previous Day ]
WEATHER ALMANAC - FEBRUARY 13, 2013
[ Next Day → ]
[ °C ]   °F
Weather ElementAverageHighLow
Temperature16.6 °F21.2 °F (4:36 pm)12.2 °F (3:16 am)
Dewpoint8.9 °F12.2 °F (4:56 pm)5 °F (12:36 am)
Humidity71.9 %85 % (6:36 am)63 % (1:56 pm)
Barometer29.74 in29.76 in (12:56 am)29.71 in (11:36 pm)
Wind Speed3.3 mph10.4 mph (1:56 pm)
Wind Gust18.4 mph (8:16 pm)
Weather ElementAverage
Visibility10 mi
Wind DirectionENE (56.3 °)

Weather ElementTotal
Precipitation---
Heating Degree Days48.3 (Base 65)
Averaged from 70 records on February 13, 2013
WEATHER CONDITIONS BREAKOUT
WIND DIRECTION BREAKOUT
WEATHER BY HOUR - FEBRUARY 13, 2013
[ °C ]   °F
Local TimeTemperatureDewpointHumidityBarometerVisibilityWind DirectionWind SpeedGust SpeedPrecipitationEventsConditions
12:36 AM14.0 °F5.0 °F67 %29.75 in10.0 miNNE (30°)5.8 mphOvercast
12:56 AM14.0 °F6.8 °F73 %29.76 in10.0 miNNE (30°)5.8 mphOvercast
1:16 AM14.0 °F6.8 °F73 %29.76 in10.0 miNE (50°)3.5 mphOvercast
1:36 AM14.0 °F6.8 °F73 %29.75 in10.0 miNE (50°)4.6 mphOvercast
1:56 AM14.0 °F6.8 °F73 %29.76 in10.0 miNE (50°)3.5 mphOvercast
2:16 AM15.8 °F6.8 °F68 %29.75 in10.0 miCalmOvercast
2:36 AM15.8 °F6.8 °F68 %29.75 in10.0 miCalmOvercast
2:56 AM14.0 °F6.8 °F73 %29.75 in10.0 miNE (50°)3.5 mphOvercast
3:16 AM12.2 °F6.8 °F79 %29.76 in10.0 miCalmOvercast
3:36 AM12.2 °F6.8 °F79 %29.76 in10.0 miNNE (20°)3.5 mphOvercast
3:56 AM14.0 °F6.8 °F73 %29.75 in10.0 miNNE (30°)4.6 mphOvercast
4:16 AM14.0 °F6.8 °F73 %29.75 in10.0 miNE (40°)3.5 mphOvercast
4:36 AM15.8 °F8.6 °F73 %29.75 in10.0 miCalmOvercast
4:56 AM14.0 °F6.8 °F73 %29.75 in10.0 miCalmMostly Cloudy
5:16 AM12.2 °F6.8 °F79 %29.75 in10.0 miENE (60°)4.6 mphPartly Cloudy
5:56 AM12.2 °F6.8 °F79 %29.74 in10.0 miCalmMostly Cloudy
6:16 AM12.2 °F6.8 °F79 %29.74 in10.0 miNE (50°)4.6 mphOvercast
6:36 AM12.2 °F8.6 °F85 %29.74 in10.0 miENE (60°)4.6 mphOvercast
6:56 AM12.2 °F6.8 °F79 %29.74 in10.0 miENE (60°)4.6 mphOvercast
7:16 AM12.2 °F6.8 °F79 %29.73 in10.0 miNNE (30°)3.5 mphOvercast
7:36 AM15.8 °F8.6 °F73 %29.73 in10.0 miNE (50°)5.8 mphOvercast
7:56 AM17.6 °F10.4 °F73 %29.73 in10.0 miNE (50°)4.6 mphOvercast
8:16 AM15.8 °F8.6 °F73 %29.73 in10.0 miNE (40°)4.6 mphOvercast
8:36 AM15.8 °F8.6 °F73 %29.73 in10.0 miCalmOvercast
8:56 AM15.8 °F8.6 °F73 %29.73 in10.0 miNNE (30°)4.6 mphOvercast
9:16 AM15.8 °F8.6 °F73 %29.74 in10.0 miNE (40°)5.8 mphOvercast
9:36 AM15.8 °F8.6 °F73 %29.74 in10.0 miNNE (30°)5.8 mphOvercast
9:56 AM15.8 °F8.6 °F73 %29.74 in10.0 miCalmOvercast
10:16 AM14.0 °F6.8 °F73 %29.74 in10.0 miEast (80°)3.5 mphOvercast
10:36 AM14.0 °F8.6 °F79 %29.75 in10.0 miCalmOvercast
10:56 AM12.2 °F8.6 °F85 %29.75 in10.0 miCalmOvercast
11:16 AM14.0 °F8.6 °F79 %29.75 in10.0 miCalmOvercast
11:36 AM15.8 °F8.6 °F73 %29.75 in10.0 miCalmOvercast
11:56 AM15.8 °F8.6 °F73 %29.75 in10.0 miCalmOvercast
12:16 PM15.8 °F8.6 °F73 %29.75 in10.0 miENE (60°)3.5 mphOvercast
12:36 PM15.8 °F8.6 °F73 %29.76 in10.0 miCalmOvercast
12:56 PM15.8 °F8.6 °F73 %29.75 in10.0 miCalmOvercast
1:16 PM17.6 °F8.6 °F68 %29.76 in10.0 miCalmOvercast
1:36 PM17.6 °F8.6 °F68 %29.76 in10.0 miESE (110°)5.8 mphMostly Cloudy
1:56 PM19.4 °F8.6 °F63 %29.75 in10.0 miESE (110°)10.4 mph17.3 mphOvercast
2:16 PM19.4 °F10.4 °F68 %29.75 in10.0 miEast (80°)6.9 mphOvercast
2:36 PM19.4 °F10.4 °F68 %29.75 in10.0 miSE (140°)4.6 mphOvercast
2:56 PM19.4 °F10.4 °F68 %29.74 in10.0 miEast (90°)4.6 mphOvercast
3:16 PM19.4 °F10.4 °F68 %29.74 in10.0 miESE (120°)3.5 mphOvercast
3:36 PM19.4 °F10.4 °F68 %29.74 in10.0 miSE (140°)3.5 mphOvercast
3:56 PM19.4 °F10.4 °F68 %29.74 in10.0 miSE (130°)6.9 mphOvercast
4:16 PM19.4 °F10.4 °F68 %29.73 in10.0 miESE (110°)6.9 mphOvercast
4:36 PM21.2 °F10.4 °F63 %29.73 in10.0 miEast (100°)4.6 mphOvercast
4:56 PM19.4 °F12.2 °F74 %29.73 in10.0 miSE (130°)3.5 mphOvercast
5:16 PM19.4 °F12.2 °F74 %29.73 in10.0 miCalmOvercast
5:36 PM21.2 °F12.2 °F68 %29.73 in10.0 miCalmOvercast
5:56 PM21.2 °F10.4 °F63 %29.73 in10.0 miSE (130°)6.9 mphOvercast
6:16 PM19.4 °F10.4 °F68 %29.74 in10.0 miESE (120°)4.6 mphOvercast
6:36 PM19.4 °F10.4 °F68 %29.74 in10.0 miESE (120°)5.8 mphOvercast
6:56 PM19.4 °F10.4 °F68 %29.73 in10.0 miCalmOvercast
7:16 PM19.4 °F10.4 °F68 %29.74 in9.0 miCalmOvercast
7:36 PM19.4 °F10.4 °F68 %29.72 in10.0 miCalmOvercast
7:56 PM19.4 °F10.4 °F68 %29.73 in10.0 miSSE (150°)8.1 mphOvercast
8:16 PM17.6 °F8.6 °F68 %29.73 in10.0 miESE (120°)8.1 mph18.4 mphScattered Clouds
8:36 PM17.6 °F8.6 °F68 %29.73 in10.0 miSE (130°)8.1 mphMostly Cloudy
8:56 PM19.4 °F10.4 °F68 %29.73 in10.0 miSE (130°)5.8 mphOvercast
9:16 PM19.4 °F10.4 °F68 %29.73 in10.0 miCalmOvercast
9:36 PM17.6 °F10.4 °F73 %29.72 in10.0 miCalmOvercast
9:56 PM17.6 °F10.4 °F73 %29.72 in10.0 miCalmOvercast
10:16 PM19.4 °F10.4 °F68 %29.73 in10.0 miSE (130°)3.5 mphOvercast
10:36 PM17.6 °F10.4 °F73 %29.72 in10.0 miSE (130°)3.5 mphOvercast
10:56 PM17.6 °F10.4 °F73 %29.72 in10.0 miSE (130°)4.6 mphOvercast
11:16 PM17.6 °F10.4 °F73 %29.72 in10.0 miSE (140°)6.9 mphOvercast
11:36 PM19.4 °F10.4 °F68 %29.71 in10.0 miESE (120°)4.6 mphMostly Cloudy
11:56 PM17.6 °F10.4 °F73 %29.72 in10.0 miSE (140°)3.5 mphOvercast
Hourly data recorded from PAFM, located miles away from Shungnak, Alaska







STORIES FROM OUR PARTNERS